カタログに戻る

STARLINK-34861

運用中通信VLEO
NORAD 66368·PAYLOAD·🇺🇸 United States

打ち上げ Nov 6, 2025 から Vandenberg Space Force Base

Loading…

次のパス (今後24時間)

TLE

最新Source: CelesTrak SupGP

元期: Sep 15, 2026, 03:35 UTC

1 66368C 25254W   26258.14979167 -.00037321  00000+0 -11036-2 0  2582
2 66368  53.1597  68.6777 0001055  85.1922 328.4833 15.34382384    13

AllMySatでSTARLINK-34861をリアルタイム追跡

Download on the App Store